Wind_Speed
10 10 9 8 8 8 8 8 8 8 9 9 9 9 9 10 10 10 10 10 10 10 10 9 9 9 9 8 8 8 7 8 8 8 8 7 7 7 7 6 6 7 6 7
12 11 9 9 9 9 9 9 9 9 9 9 9 9 10 10 10 10 11 11 10 10 10 10 9 8 8 8 7 7 7 8 8 8 8 7 7 6 6 6 5 6 6 6
13 11 11 10 10 10 10 9 9 9 9 9 9 9 10 10 10 10 10 11 10 9 10 9 9 8 8 8 8 8 8 8 8 8 7 6 6 6 5 5 5 5 6 5
14 12 12 12 12 11 10 9 9 10 9 9 10 11 10 11 10 10 10 10 10 10 10 9 9 8 8 8 8 9 9 9 8 7 7 6 5 5 5 5 5 5 6 5
14 14 14 13 13 12 11 10 10 10 9 10 10 12 11 11 12 11 10 10 9 9 10 9 9 9 9 8 8 9 9 8 7 7 6 5 5 5 6 6 6 5 6 6
15 15 14 14 13 13 12 11 11 10 10 10 11 12 12 11 12 11 11 10 10 9 10 9 9 9 9 9 9 8 8 8 8 7 6 6 6 6 6 7 6 6 6 6
16 17 16 15 15 14 13 13 11 10 12 13 12 13 12 11 12 12 12 11 10 10 10 9 10 10 9 9 9 8 9 9 8 8 8 7 7 7 7 7 6 6 6 7
18 18 17 17 16 15 15 14 13 12 12 12 12 13 12 13 12 12 12 12 11 11 10 10 10 10 10 9 9 9 9 8 8 8 8 8 7 7 7 7 6 7 7 7
19 19 18 18 17 17 17 16 14 13 13 13 13 14 13 13 13 13 13 12 13 12 11 10 10 10 10 10 10 9 9 9 9 9 8 8 8 7 7 7 7 7 7 7
20 20 19 18 18 17 17 16 15 15 15 15 15 15 14 14 14 14 14 14 14 13 12 11 11 10 10 10 10 10 9 9 9 9 9 8 8 7 7 7 7 8 8 8
20 19 19 19 19 17 17 18 17 16 17 17 17 16 15 15 16 16 15 15 14 14 13 12 12 12 12 11 11 11 10 10 10 10 9 9 8 8 8 7 8 8 8 8
20 20 19 20 19 17 18 19 18 18 18 18 18 18 16 17 16 17 16 16 16 15 14 14 14 13 13 12 12 12 11 11 11 10 10 9 9 9 9 9 9 8 8 9
20 21 20 21 20 19 19 20 19 19 19 19 19 19 18 18 17 17 17 17 17 16 16 15 14 14 14 13 13 13 12 12 12 11 11 10 10 10 10 10 10 10 9 9
21 22 22 21 21 20 19 20 20 20 20 19 19 20 19 18 18 19 19 18 17 17 16 16 15 15 15 14 14 14 13 13 13 12 12 12 12 12 12 11 11 11 11 10
22 23 23 22 20 20 21 20 21 22 21 20 20 21 21 20 20 19 19 19 18 17 17 17 16 16 16 16 16 15 15 15 14 14 14 14 14 13 13 13 13 13 13 12
23 23 23 22 21 20 21 22 23 23 23 22 22 22 22 21 21 20 19 19 18 18 18 18 17 17 17 18 17 16 15 15 15 15 15 15 15 14 14 14 14 14 14 13
23 23 24 23 23 23 22 21 22 22 23 23 23 23 24 23 23 22 20 20 20 19 19 19 18 18 18 18 17 17 17 16 16 16 16 15 15 14 14 15 15 15 14 14
24 24 25 24 24 25 22 22 23 23 24 24 24 25 25 24 23 23 22 22 21 21 20 20 19 18 18 18 18 17 17 18 17 17 16 16 16 16 15 16 16 15 15 15
24 25 25 25 25 25 24 23 24 24 24 24 24 25 25 25 24 23 23 23 23 22 22 21 20 20 19 19 19 18 18 19 19 18 17 17 17 17 17 17 17 17 17 17
25 26 26 26 26 26 24 24 25 26 26 24 25 25 25 25 25 25 24 24 23 23 23 22 21 21 20 20 20 20 20 20 20 20 19 19 19 19 18 18 19 19 19 19
26 27 28 28 29 29 27 26 27 28 27 26 27 27 27 27 27 26 25 25 25 24 24 23 23 22 21 21 22 21 21 21 21 21 20 20 20 20 20 20 20 20 21 20
26 27 28 29 30 30 28 28 29 29 28 28 28 28 28 28 28 27 26 26 26 25 24 24 24 23 22 22 23 23 22 22 22 22 23 22 21 21 21 21 20 20 21 21
25 26 28 29 29 29 28 29 30 30 29 29 30 29 29 29 29 28 27 26 26 26 25 25 25 24 23 23 24 24 24 24 24 24 24 24 23 22 22 22 22 22 22 22
26 26 27 29 29 30 30 30 30 30 31 30 30 29 29 29 29 28 28 27 27 26 25 25 25 25 25 25 24 25 25 25 25 25 25 24 24 24 23 23 23 23 23 23
27 27 27 28 29 30 30 31 31 30 29 29 29 29 29 29 29 28 28 28 27 27 27 26 26 26 26 26 26 25 25 26 26 26 26 25 25 25 25 25 25 25 25 25
27 27 27 27 28 29 29 28 29 29 28 28 28 28 28 28 28 28 28 28 28 28 28 28 27 27 27 28 27 27 27 26 27 27 27 27 26 26 26 27 27 27 27 27
Wind_Direction
259 259 257 259 261 264 268 278 288 292 296 297 301 308 309 309 309 309 307 308 310 312 317 318 317 318 312 312 309 308 311 314 314 317 317 320 318 313 308 304 303 305 303 302
257 254 253 252 253 257 265 272 283 288 291 297 303 307 308 310 312 311 310 309 307 310 313 315 316 313 314 311 311 311 310 314 312 314 315 316 320 319 313 306 301 306 312 313
253 253 250 250 250 255 260 268 277 284 288 294 299 305 306 309 312 312 311 309 307 308 315 317 313 312 315 314 311 311 311 316 318 318 317 312 316 321 320 319 311 308 313 317
251 250 248 248 249 254 258 264 271 277 283 292 298 300 303 307 309 310 309 308 306 307 313 315 315 312 313 312 308 308 310 311 313 318 319 311 314 321 319 318 313 309 308 307
250 250 250 248 249 250 256 258 263 274 280 286 293 294 300 305 306 308 306 303 304 304 310 312 311 313 311 310 308 309 308 306 307 310 316 311 314 313 313 313 312 311 308 304
252 252 252 251 250 251 253 254 255 263 274 280 288 289 293 298 302 305 303 301 302 301 303 308 309 308 310 312 311 309 306 305 306 305 302 302 310 313 313 310 303 302 302 306
253 251 249 250 248 248 249 250 251 259 270 276 283 283 287 293 298 301 300 298 298 299 299 304 308 307 310 309 308 308 307 303 303 299 297 296 301 304 308 307 301 296 300 303
253 251 248 248 249 248 247 248 249 252 260 273 279 282 288 291 293 294 296 294 297 295 294 297 301 301 303 305 305 308 309 304 299 296 296 294 296 297 303 307 299 293 295 297
253 254 248 247 248 248 249 248 246 245 252 260 269 277 286 291 292 291 292 292 293 294 292 294 298 298 298 303 301 301 303 304 299 293 291 291 294 294 297 301 302 294 294 296
248 253 249 248 249 247 251 252 246 239 245 252 261 270 278 286 292 292 291 291 293 293 289 291 294 296 296 298 297 297 295 300 299 294 289 287 292 291 294 296 297 299 298 298
247 250 249 244 244 245 248 249 248 246 248 254 262 269 275 279 284 288 290 290 291 291 287 286 290 292 292 292 293 294 293 295 295 291 287 287 289 291 292 294 296 298 301 301
244 245 247 246 247 248 248 249 248 247 248 252 259 266 271 274 279 282 284 286 288 289 288 284 285 288 289 289 290 290 290 293 293 288 285 285 285 288 288 289 292 296 297 296
243 242 244 246 246 248 247 247 248 248 250 251 255 263 267 271 276 279 281 283 286 288 285 284 283 282 284 288 290 289 288 289 289 285 285 284 282 283 284 285 287 291 293 294
244 242 240 245 250 252 250 247 246 246 249 250 255 261 264 268 273 275 277 280 281 282 282 282 282 279 279 282 286 289 288 287 287 283 280 281 282 282 282 282 282 285 289 293
243 243 241 246 250 251 251 250 248 249 250 253 255 259 264 267 271 274 275 277 278 277 279 280 281 278 277 279 281 282 284 282 283 281 278 279 279 279 281 282 280 281 284 290
245 243 243 246 249 249 252 252 252 252 252 257 259 259 262 263 268 271 273 274 276 276 276 277 278 276 276 277 279 278 278 279 279 281 280 278 277 276 277 280 281 281 282 285
247 248 248 250 252 250 252 255 254 253 253 257 261 263 265 265 267 268 269 271 275 276 275 275 275 275 275 275 277 278 277 278 279 278 279 278 275 274 274 275 278 278 280 283
247 249 250 251 252 254 255 258 258 257 256 259 262 265 267 268 268 268 268 270 271 273 273 272 273 273 273 273 273 276 277 277 279 277 277 276 274 273 273 274 274 273 277 281
246 249 252 253 255 257 257 260 261 260 260 260 263 266 267 267 268 269 269 270 272 273 273 273 273 272 270 270 270 273 273 275 279 278 277 276 276 275 276 277 276 275 276 279
248 248 251 253 256 258 259 262 263 263 262 261 264 266 268 268 269 270 269 269 270 270 272 271 273 272 269 268 268 269 270 271 275 277 276 276 276 276 276 276 276 275 276 277
252 250 252 253 255 258 260 263 264 263 264 264 264 266 268 270 270 269 269 269 270 270 271 271 271 271 269 267 267 268 269 270 271 273 274 276 276 275 275 275 275 274 274 274
254 254 254 254 255 257 261 263 264 265 265 265 264 265 267 268 269 268 268 269 269 270 271 271 271 270 269 267 267 268 270 271 270 271 273 274 275 276 277 277 277 276 275 274
254 256 256 254 255 258 260 262 264 265 265 265 265 265 266 267 267 267 267 268 268 269 270 270 270 269 269 269 268 268 269 270 270 270 272 273 273 274 275 276 276 276 276 275
253 256 257 255 256 258 261 262 264 266 265 265 264 265 265 265 265 265 266 267 267 268 269 270 270 269 269 269 270 268 269 270 271 270 270 271 272 273 274 275 276 277 278 277
255 256 258 258 258 260 262 264 265 264 265 265 265 265 265 265 264 264 264 265 265 266 268 270 270 270 270 270 270 270 270 269 270 269 269 269 271 273 274 275 276 277 278 278
257 258 260 260 260 261 262 263 265 265 264 263 263 264 264 264 264 264 264 264 265 266 268 269 269 269 270 269 269 270 270 270 269 269 268 268 270 273 276 275 275 276 278 278
Height
5860 5861 5861 5862 5862 5862 5862 5862 5863 5863 5862 5862 5861 5861 5860 5860 5859 5858 5857 5856 5855 5854 5854 5853 5852 5851 5850 5849 5849 5849 5848 5848 5847 5846 5846 5845 5844 5843 5843 5842 5842 5841 5841 5840
5858 5858 5859 5859 5860 5860 5860 5861 5861 5861 5860 5860 5860 5859 5859 5858 5857 5856 5855 5855 5854 5853 5852 5852 5851 5850 5849 5849 5848 5848 5847 5847 5846 5845 5844 5844 5843 5842 5842 5841 5841 5840 5840 5839
5854 5856 5856 5857 5858 5858 5859 5859 5859 5859 5859 5858 5858 5858 5858 5857 5856 5855 5854 5853 5853 5852 5851 5851 5850 5849 5849 5848 5847 5847 5846 5846 5845 5844 5843 5843 5842 5842 5841 5840 5840 5839 5839 5838
5851 5852 5853 5854 5855 5856 5856 5857 5857 5857 5857 5857 5857 5856 5856 5855 5854 5854 5853 5852 5851 5851 5850 5849 5849 5848 5848 5847 5846 5846 5845 5845 5844 5843 5842 5842 5841 5841 5840 5840 5839 5839 5838 5838
5848 5849 5850 5851 5852 5853 5854 5855 5855 5855 5855 5855 5855 5855 5855 5853 5853 5852 5852 5851 5850 5850 5849 5848 5848 5847 5846 5846 5845 5845 5844 5843 5843 5842 5842 5841 5841 5840 5840 5839 5839 5838 5838 5837
5844 5845 5847 5848 5849 5850 5851 5852 5852 5852 5852 5853 5854 5853 5853 5852 5851 5851 5850 5849 5849 5849 5848 5847 5846 5846 5845 5845 5844 5843 5842 5842 5842 5841 5841 5840 5840 5839 5839 5838 5837 5837 5837 5836
5841 5842 5843 5844 5846 5847 5848 5849 5849 5849 5850 5851 5852 5851 5851 5850 5850 5849 5848 5848 5847 5847 5846 5845 5845 5845 5844 5843 5843 5842 5841 5841 5840 5840 5839 5839 5838 5838 5837 5837 5836 5836 5836 5835
5836 5838 5839 5840 5841 5843 5844 5846 5847 5848 5848 5849 5849 5848 5849 5848 5848 5847 5847 5846 5845 5845 5844 5844 5843 5843 5842 5842 5841 5840 5840 5839 5839 5838 5838 5837 5837 5836 5836 5835 5835 5834 5834 5834
5832 5833 5835 5836 5837 5839 5840 5842 5843 5845 5845 5846 5846 5846 5846 5846 5846 5845 5844 5844 5843 5843 5842 5842 5841 5841 5840 5840 5839 5839 5838 5837 5837 5836 5836 5836 5835 5835 5834 5834 5833 5833 5833 5832
5828 5829 5831 5832 5833 5835 5837 5838 5839 5841 5842 5843 5843 5843 5843 5843 5843 5842 5842 5841 5841 5840 5840 5839 5839 5839 5838 5838 5837 5836 5836 5835 5835 5834 5834 5833 5833 5833 5833 5832 5832 5832 5831 5831
5823 5825 5826 5828 5829 5831 5833 5834 5835 5837 5838 5839 5840 5842 5840 5840 5840 5839 5839 5838 5838 5837 5837 5837 5836 5836 5836 5835 5835 5834 5834 5833 5832 5832 5831 5831 5831 5831 5831 5831 5830 5830 5830 5829
5818 5820 5821 5823 5825 5826 5828 5830 5832 5833 5834 5835 5836 5839 5836 5836 5836 5836 5836 5835 5835 5834 5834 5834 5833 5833 5833 5833 5832 5832 5831 5830 5830 5829 5829 5829 5829 5829 5829 5829 5829 5828 5828 5828
5813 5815 5817 5818 5822 5822 5823 5825 5827 5829 5830 5831 5831 5834 5832 5832 5832 5832 5832 5832 5831 5831 5830 5830 5830 5830 5830 5830 5829 5829 5828 5828 5827 5827 5827 5826 5826 5827 5827 5827 5827 5826 5826 5826
5808 5810 5813 5815 5815 5816 5818 5820 5821 5823 5824 5825 5826 5827 5828 5828 5828 5828 5828 5827 5827 5827 5827 5826 5826 5826 5826 5826 5826 5826 5825 5825 5824 5824 5824 5824 5824 5824 5824 5824 5824 5824 5824 5823
5803 5805 5807 5809 5810 5812 5814 5815 5816 5818 5819 5820 5821 5822 5823 5823 5823 5823 5823 5823 5823 5823 5823 5823 5823 5822 5822 5822 5822 5822 5822 5821 5821 5821 5821 5821 5821 5821 5821 5821 5821 5821 5821 5821
5798 5800 5802 5803 5805 5806 5808 5810 5811 5812 5813 5814 5816 5817 5817 5818 5818 5818 5818 5818 5818 5818 5818 5818 5818 5818 5818 5818 5818 5818 5818 5817 5817 5817 5817 5817 5817 5818 5818 5818 5818 5818 5818 5818
5793 5795 5796 5798 5799 5800 5803 5805 5805 5806 5808 5809 5810 5812 5811 5812 5812 5813 5813 5813 5813 5813 5813 5813 5813 5813 5813 5813 5813 5813 5813 5813 5813 5813 5813 5813 5813 5813 5814 5814 5814 5814 5814 5814
5787 5789 5790 5792 5794 5795 5800 5799 5799 5801 5802 5803 5803 5805 5805 5806 5807 5807 5807 5807 5808 5808 5807 5808 5808 5808 5808 5808 5808 5809 5809 5809 5809 5809 5809 5809 5809 5809 5809 5809 5809 5810 5810 5810
5781 5783 5784 5786 5787 5788 5792 5792 5793 5794 5796 5797 5797 5798 5799 5799 5800 5801 5801 5801 5802 5802 5802 5802 5802 5802 5802 5803 5803 5803 5804 5804 5803 5804 5804 5804 5804 5804 5804 5805 5805 5805 5805 5805
5775 5777 5779 5780 5781 5782 5785 5787 5787 5788 5789 5791 5791 5791 5792 5792 5793 5795 5795 5795 5795 5796 5796 5796 5796 5796 5797 5797 5797 5798 5798 5798 5798 5798 5798 5799 5799 5799 5799 5799 5799 5800 5800 5800
5769 5770 5772 5773 5773 5775 5778 5779 5780 5782 5783 5783 5783 5784 5785 5785 5786 5787 5787 5788 5789 5789 5790 5790 5790 5790 5790 5791 5791 5792 5792 5792 5792 5792 5793 5793 5793 5793 5794 5794 5794 5794 5794 5794
5762 5763 5765 5766 5767 5771 5771 5772 5773 5774 5774 5775 5776 5776 5777 5778 5778 5779 5780 5781 5782 5782 5783 5783 5783 5784 5784 5784 5785 5785 5786 5786 5786 5786 5787 5787 5787 5787 5787 5788 5788 5788 5788 5788
5755 5757 5758 5760 5762 5762 5763 5764 5764 5765 5766 5767 5768 5769 5769 5770 5770 5771 5772 5773 5774 5775 5775 5775 5776 5777 5777 5777 5778 5778 5779 5779 5779 5779 5780 5780 5780 5781 5781 5781 5781 5782 5781 5782
5748 5749 5750 5751 5753 5754 5754 5755 5756 5757 5757 5758 5759 5760 5760 5761 5762 5763 5764 5765 5766 5767 5767 5768 5768 5769 5770 5770 5770 5771 5771 5771 5772 5772 5772 5773 5773 5774 5774 5774 5775 5775 5775 5775
5740 5741 5742 5743 5745 5746 5747 5747 5748 5748 5749 5750 5750 5751 5752 5753 5754 5755 5756 5757 5758 5758 5759 5760 5760 5761 5762 5762 5763 5763 5763 5764 5764 5765 5765 5766 5766 5767 5767 5767 5767 5767 5767 5767
5733 5734 5735 5736 5737 5738 5739 5739 5739 5740 5740 5741 5741 5742 5743 5744 5745 5746 5748 5749 5750 5750 5751 5751 5752 5752 5753 5754 5754 5755 5755 5755 5756 5757 5757 5758 5759 5759 5759 5760 5760 5759 5759 5759